Location: Puketoi
(40.5833°S, 176.0167°E)
Time: 14:19:07
(UTC+00:00)

Helios 1B rocket - Pass Details

Date: 08 February 2023
Orbit: 558 x 571 km, 98.2° (Epoch: 23 March)

Event Time Altitude Azimuth Distance (km) Brightness Sun altitude
Exits shadow 16:32:26 14° 324° (NW) 1,648 4.2 -11.1°
Maximum altitude 16:35:02 24° 276° (W) 1,206 3.5 -10.7°
Drops below altitude 10° 16:38:23 10° 221° (SW) 1,890 4.9 -10.1°
Sets 16:40:53 0° 206° (SSW) 2,794 6.0 -9.7°
